Regional Weather Roundup
Issued by NWS Charleston, SC

Current Version | Previous Version | Graphics & Text | Print | Product List | Glossary On
Versions: 1 2 3 4 5 6 7 8 9 10 11 12 13 14 15 16 17 18 19 20 21 22 23 24 25 26 27 28 29 30 31 32 33 34 35 36 37 38 39 40 41 42 43 44 45 46 47 48 49 50
705 ASUS42 KCHS 261627 RWRCHS Regional Weather Roundup National Weather Service Charleston SC 1200 PM EDT THU APR 26 2018 NOTE: "fair" indicates few or no clouds below 12,000 feet with no significant weather and/or obstructions to visibility. Not all stations are quality controlled. Use data with caution, especially dewpoint observations. SCZ027-030-031-034>040-042>050-261700- ...Southeast South Carolina... CITY SKY/WX TMP DP RH WIND PRES REMARKS N Charleston PTSUNNY 75 55 49 SW13 29.87F Waterfront Prk NOT AVBL Mount Pleasant FAIR 73 57 56 S9G17 29.88F Johns Island FAIR 73 57 56 S12G18 29.89S Pinopolis NOT AVBL Moncks Corner FAIR 73 52 46 SW7 29.86F Summerville FAIR 72 54 53 S6 29.88F Beaufort MCAS FAIR 73 55 53 S12G17 29.88F Beaufort Arpt FAIR 72 55 56 S9 29.88S Hilton Head Is PTSUNNY 72 57 60 S7 29.90S Walterboro FAIR 72 54 53 SW10 29.88S Allendale FAIR 72 55 56 CALM 29.87S ...Southern Midlands and Pee Dee... CITY SKY/WX TMP DP RH WIND PRES REMARKS Georgetown FAIR 73 54 49 S8G16 29.88F Kingstree PTSUNNY 73 54 49 SW5 29.86F Orangeburg FAIR 71 55 56 S9 29.87S Barnwell FAIR 72 54 53 SW5G12 29.87F Aiken FAIR 70 54 56 S6 29.91S Manning FAIR 68 54 60 SW7 29.87F Columbia PTSUNNY 72 57 59 CALM 29.87S Sumter CLOUDY 74 55 51 SE8 29.85S Florence FAIR 73 56 54 CALM 29.87F Myrtle Beach FAIR 70 61 73 SE10 29.90R N Myrtle Beach FAIR 69 59 70 S12 29.89R $$ GAZ063-065-086>088-099>101-113>116-118-119-134>141-150-261700- ...Southeast Georgia... CITY SKY/WX TMP DP RH WIND PRES REMARKS Savannah Arpt PTSUNNY 74 54 49 SW10 29.89S Hunter AAF FAIR 74 55 50 SW10 29.86F Fort Stewart FAIR 74 54 49 W8 29.87F Statesboro FAIR 74 48 39 W9 29.89S Sylvania FAIR 72 56 57 W3 29.89S Claxton FAIR 74 56 53 S8 29.89S ...CSRA, Central and far Southeast Georgia... CITY SKY/WX TMP DP RH WIND PRES REMARKS Thomson FAIR 67 54 62 W3 29.93F Augusta-Bush FAIR 70 56 61 SW7 29.88S Augusta-Daniel FAIR 70 56 61 S9 29.89S Swainsboro FAIR 70 52 52 W10G17 29.91R Vidalia FAIR 72 50 46 W7 29.91S Eastman FAIR 71 42 36 SW7 29.93S Hazlehurst FAIR 75 53 45 NW5 29.89F Alma FAIR 75 54 47 SW8 29.90R Waycross FAIR 77 52 41 SW13G18 29.89F Jesup NOT AVBL Baxley FAIR 72 52 49 W9 29.90S Brunswick FAIR 75 54 46 SW15 29.90S Saint Simons FAIR 73 56 54 SE8 29.90S $$ SCZ027-028-034-036>038-045-046-048>050-GAZ119-141-261700- ...Lake and Supplemental Coastal Observations... STATION/POSITION TIME TEMP WIND PRES WAVE SWELL AIR SEA DIR/SP/G HT/PER HT/PER/DIR (UTC) (F) (DEG/KT/KT) (MB) (FT/S) (FT/S/D) Winyah Bay 1545 68 120/ 9 1012.0S Lake Murray 1520 68 100/ 4/ 7 1011.2 ACE Basin NERRS 1545 74 350/ 1 N/A Fort Pulaski 1600 71 66 200/ 7/ 13 1012.3 Sapelo Island 1600 75 180/ 6 1012.0 $$ ANZ835-935-AMZ111-154-330-350-352-354-370-450-454-472-261700- ...C-MAN and Buoy Observations... STATION/POSITION TIME TEMP WIND PRES WAVE SWELL AIR SEA DIR/SP/G HT/PER HT/PER/DIR (UTC) (F) (DEG/KT/KT) (MB) (FT/S) (FT/S/D) Buoy 41004 1610 69 220/ 6/ 8 1012.7 Buoy 41008 1550 66 67 190/ 4/ 6 1012.6S 2/ 9 2/ 90/ 9 Folly Beach CMAN 1600 67 200/ 9/ 11 1012.7S Capers Nearshore 1608 66 66 220/ 10/ 12 1012.5F Fripp Nearshore 1608 65 66 210/ 8/ 10 1012.1F STATION/POSITION TIME TEMP WIND PRES WAVE SWELL AIR SEA DIR/SP/G HT/PER HT/PER/DIR (UTC) (F) (DEG/KT/KT) (MB) (FT/S) (FT/S/D) 5E St. Marys GA 1600 70 N/A 2/ 9 Frying Pan Buoy 1610 70 70 170/ 4/ 8 1012.5 Buoy 41025 1610 66 70 60/ 6/ 8 1013.5 Cape Lookout NC 1600 120/ 7/ 8 1013.0R Buoy 41002 1610 72 73 210/ 12/ 14 1014.1 Buoy 41010 1610 75 76 220/ 12/ 14 1014.4 St Augustine FL 1600 68 69 130/ 7/ 8 1014.1F $$

USA.gov is the U.S. government's official web portal to all federal, state and local government web resources and services.